Weather in Thanjavur

India     10°47′08″N   79°08′41″E
temp.,
°C
wind,
m/s
gust,
m/s
humid.,
%
clouds,
%
prec.,
mm/h
press.,
hPa
HPBL,
m
1 december, wed
wed123:30+23nne34960 0.2 101389
02:30+23nne35960 0.0 1011117
05:30+22nne36964 0.0 1011157
08:30+26nne46840 0.0 1013435
11:30+29ne457166 0.6 10111154
14:30+29ene567147 2.1 10081026
17:30+25ene47871 4.4 1009241
20:30+24ne38930 1.4 1012206
2 december, thu
thu223:30+23nne22935 5.7 101230
02:30+23nne23925 0.1 101059
05:30+23n35953 0.1 1011121
08:30+25n478590 0.0 1013407
11:30+28nne557284 0.8 10121126
14:30+27nne4676100 0.5 1009809
17:30+25ne4784100 0.6 1009220
20:30+24ne3784100 0.0 1012164
3 december, fri
fri323:30+23ne2484100 0.0 101274
02:30+23n358525 0.0 1010106
05:30+22n3683100 0.0 1010125
08:30+25n357689 0.0 1013328
11:30+28nne346487 0.0 1012947
14:30+29nne3363100 0.0 10081175
17:30+27ene3477100 0.0 101060
20:30+24ene358298 0.0 101394
4 december, sat
sat423:30+23ene228661 0.0 101236
02:30+23ne228989 0.0 101129
05:30+22nne229132 0.0 101225
08:30+25n227951 0.0 1014331
11:30+28nne226668 0.0 1012943
14:30+30ene116150 0.0 10091290
17:30+27e348111 0.7 101077
20:30+24ese239060 0.1 101371
5 december, sun
sun523:30+24se128757 0.2 101215
02:30+23ssw118936 1.6 101114
05:30+23wnw11895 2.3 101211
08:30+26w00802 0.0 1014271
11:30+30sse116735 0.3 10121042
14:30+30se116570 2.6 10081035
17:30+27se358351 4.9 100988
20:30+24se339194 0.6 101271